Decatur, AL

5:37 PM CST on February 09, 2016 (GMT -0600)
Pryor Regional

Weather History for KDCU - November, 2011

Change the Weather History Date:

Tuesday, November 8, 2011

  Actual Average Record
Temperature  
Mean Temperature 62 °F -  
Max Temperature 73 °F 63 °F 82 °F (2005)
Min Temperature 50 °F 38 °F 20 °F (1951)
Degree Days  
Heating Degree Days 4    
Growing Degree Days 12 (Base 50)    
Moisture  
Dew Point 49 °F    
Average Humidity 62    
Maximum Humidity 86    
Minimum Humidity 43    
Precipitation  
Precipitation 0.00 in - - ()
Sea Level Pressure  
Sea Level Pressure 30.14 in    
Wind  
Wind Speed 6 mph (SE)    
Max Wind Speed 14 mph    
Max Gust Speed -    
Visibility 10 miles    
Events      
Averages and records for this station are not official NWS values.
T = Trace of Precipitation, MM = Missing Value Source: NWS Daily Summary

Daily Weather History Graph

Daily Weather History Graph

Search for Another Location

Airport or City:

Trip Planner

Search our weather history database for the weather conditions in past years. The results will help you decide how hot, cold, wet, or windy it might be!

Date:

Astronomy

Nov. 08, 2011 Rise Set
Actual Time 6:14 AM CST 4:48 PM CST
Civil Twilight 5:48 AM CST 5:14 PM CST
Nautical Twilight 5:18 AM CST 5:44 PM CST
Astronomical Twilight 4:48 AM CST 6:14 PM CST
Moon 3:25 PM CST (11/8) 4:15 AM CST (11/8)
Length of Visible Light 11h 26m
Length of Day
10h 33m
Waxing Gibbous, 96% of the Moon is Illuminated
Nov 8
Waxing Gibbous
Nov 10
Full
Nov 18
Last Quarter
Nov 25
New
Dec 2
First Quarter

Hourly Weather History & Observations

Time (CST) Temp. Dew Point Humidity Pressure Visibility Wind Dir Wind Speed Gust Speed Precip Events Conditions
12:53 AM 50.0 °F 46.0 °F 86% 30.19 in 10.0 mi Calm Calm - N/A   Overcast
1:53 AM 53.1 °F 46.9 °F 80% 30.18 in 10.0 mi ESE 4.6 mph - N/A   Partly Cloudy
2:53 AM 54.0 °F 48.0 °F 80% 30.19 in 10.0 mi ESE 3.5 mph - N/A   Overcast
3:53 AM 55.9 °F 48.0 °F 75% 30.18 in 10.0 mi ESE 4.6 mph - N/A   Overcast
4:53 AM 55.9 °F 48.0 °F 75% 30.17 in 10.0 mi ESE 4.6 mph - N/A   Overcast
5:53 AM 57.9 °F 48.0 °F 70% 30.17 in 10.0 mi SE 8.1 mph - N/A   Overcast
6:53 AM 59.0 °F 48.9 °F 69% 30.18 in 10.0 mi SE 6.9 mph - N/A   Overcast
7:53 AM 61.0 °F 48.9 °F 64% 30.21 in 10.0 mi SE 8.1 mph - N/A   Overcast
8:53 AM 63.0 °F 48.9 °F 60% 30.21 in 10.0 mi SE 12.7 mph - N/A   Overcast
9:36 AM 66.2 °F 48.2 °F 52% 30.22 in 5.0 mi SSE 12.7 mph - N/A   Haze
9:53 AM 66.9 °F 48.9 °F 52% 30.21 in 9.0 mi SSE 9.2 mph - N/A   Mostly Cloudy
10:53 AM 71.1 °F 50.0 °F 47% 30.19 in 10.0 mi South 9.2 mph - N/A   Mostly Cloudy
11:53 AM 73.9 °F 51.1 °F 45% 30.15 in 10.0 mi SSE 12.7 mph - N/A   Mostly Cloudy
1:53 PM 73.9 °F 50.0 °F 43% 30.09 in 10.0 mi South 13.8 mph - N/A   Partly Cloudy
2:53 PM 73.9 °F 50.0 °F 43% 30.08 in 10.0 mi SSE 12.7 mph - N/A   Mostly Cloudy
3:53 PM 71.1 °F 51.1 °F 49% 30.06 in 10.0 mi SE 8.1 mph - N/A   Scattered Clouds
5:53 PM 66.0 °F 50.0 °F 56% 30.05 in 10.0 mi ESE 6.9 mph - N/A   Clear
6:53 PM 64.0 °F 50.0 °F 60% 30.07 in 10.0 mi SE 5.8 mph - N/A   Clear
7:53 PM 64.9 °F 50.0 °F 58% 30.06 in 10.0 mi SE 9.2 mph - N/A   Overcast
8:53 PM 62.1 °F 50.0 °F 65% 30.07 in 10.0 mi SE 8.1 mph - N/A   Mostly Cloudy
9:53 PM 61.0 °F 48.9 °F 64% 30.06 in 10.0 mi SE 8.1 mph - N/A   Clear
11:53 PM 62.1 °F 50.0 °F 65% 30.04 in 10.0 mi SE 12.7 mph - N/A   Overcast